Regional Weather Roundup
Issued by NWS

Home | Current Version | Previous Version | Graphics & Text | Print | Product List | Glossary On
Versions: 1 2 3 4 5 6 7 8 9 10 11 12 13 14 15 16 17 18 19 20 21 22 23 24 25 26 27 28 29 30 31 32 33 34 35 36 37 38 39 40 41 42 43 44 45 46 47 48 49 50
000
ASUS43 KLSX 210707
RWRMO

WEATHER SUMMARY FOR MISSOURI
NATIONAL WEATHER SERVICE SPRINGFIELD MO
100 AM CST SAT JAN 21 2017

NOTE: "FAIR" INDICATES FEW OR NO CLOUDS BELOW 12,000 FEET WITH NO
       SIGNIFICANT WEATHER AND/OR OBSTRUCTIONS TO VISIBILITY.
       CURRENT SKY AND/OR WEATHER CONDITIONS ARE NOT AVAILABLE FOR
       CHILLICOTHE AND FARMINGTON.

MOZ001>031-035>038-043-044-053-054-210800-
...NORTHERN AND WESTERN MISSOURI...

CITY           SKY/WX    TMP DP  RH WIND       PRES   REMARKS
KANSAS CTY INT CLEAR     38  35  89 S8        29.41F
KANSAS C DTWN  FOG       41  41 100 CALM      29.41F VSB 1/4
LEE`S SUMMIT   CLEAR     42  41  96 S9        29.42F
ST JOSEPH      FOG       35  35 100 W5        29.41F VSB 1/4
CHILLICOTHE      N/A     45  45 100 SE6       29.45F
KIRKSVILLE     FOG       46  46 100 S10       29.46F VSB 1/2

$$
MOZ066>068-077>081-088>096-101>105-210800-
...SOUTHWEST MISSOURI...

CITY           SKY/WX    TMP DP  RH WIND       PRES   REMARKS
SPRINGFIELD    CLEAR     52  39  61 S14       29.53F
JOPLIN         CLEAR     56  39  53 S17       29.50F
BRANSON        CLEAR     55  37  50 S7        29.59S

$$
MOZ032>034-039>042-045>050-055>058-069>072-210800-
...CENTRAL MISSOURI...

CITY           SKY/WX    TMP DP  RH WIND       PRES   REMARKS
COLUMBIA       CLEAR     50  44  80 S14       29.49F
JEFFERSON CITY CLEAR     47  42  83 SE7       29.51F
ROLLA          CLEAR     53  44  71 S14       29.54F
SEDALIA        CLEAR     46  39  76 S8        29.48F
WHITEMAN AFB   CLEAR     45  45 100 S8        29.44F
WARRENSBURG    CLEAR     43  37  81 SE6       29.44F
OSAGE BEACH    CLEAR     51  43  74 S10       29.53F

$$
MOZ051-052-059>065-210800-
...EAST CENTRAL MISSOURI...

CITY           SKY/WX    TMP DP  RH WIND       PRES   REMARKS
ST LOUIS INTL  PTCLDY    53  49  86 S6        29.58F
SPIRIT OF STL  CLEAR     45  45 100 E7        29.57S FOG
ST CHARLES     CLEAR     44  44 100 SE6       29.57F FOG

$$
MOZ072>076-082>087-097>100-106>115-210800-
...SOUTH CENTRAL AND SOUTHEAST MISSOURI...

CITY           SKY/WX    TMP DP  RH WIND       PRES   REMARKS
CAPE GIRARDEAU MOCLDY    55  49  80 S5        29.66S
FARMINGTON     PTCLDY    52  49  89 S8        29.63S
POPLAR BLUFF   MOCLDY    51  50  96 CALM      29.65F
WEST PLAINS    CLEAR     51  45  79 S6        29.62F

$$



USA.gov is the U.S. government's official web portal to all federal, state and local government web resources and services.